RH
35 40 55 50 56 53 59 79 88 90 96 89 94 94 92 85 93 82 92 95 94 79 87 64 28 38 59 98 98 86 79 77 65 54 56 46 37 30 25 26 26 22 22 20 20 20 18
19 36 37 37 36 36 41 69 66 62 79 69 66 66 61 70 49 62 68 83 91 86 89 55 58 73 86 96 98 99 75 85 58 39 35 33 31 31 32 28 27 26 24 22 20 17 14
17 24 24 24 26 23 32 54 67 51 62 73 76 67 62 54 60 48 58 72 89 88 89 54 59 98 98 98 98 96 96 90 82 74 67 57 47 41 34 28 27 26 25 22 18 16 20
10 10 18 20 19 19 45 62 58 58 70 64 65 77 86 96 70 58 70 78 90 87 78 74 87 97 98 92 90 87 98 94 82 76 65 54 41 33 32 31 29 28 26 22 25 28 33
6 7 12 19 19 18 39 52 65 79 74 65 72 70 75 75 75 60 72 91 86 78 77 84 93 97 98 98 91 98 97 97 86 77 66 49 39 37 32 28 27 31 30 26 23 29 30
5 5 7 13 13 22 36 46 50 70 62 67 81 78 80 92 79 87 93 90 91 73 79 95 97 98 97 98 98 96 95 84 91 77 53 44 38 33 28 24 35 45 46 40 36 34 51
4 4 5 8 12 23 34 42 48 46 58 66 64 69 82 95 92 96 89 95 91 72 97 97 98 98 96 98 98 98 98 95 86 62 52 47 41 38 35 39 53 63 77 89 28 57 60
5 4 5 7 11 20 25 35 46 45 51 67 67 62 66 87 81 77 92 84 87 95 97 98 97 98 98 98 95 98 98 87 71 58 45 36 35 41 55 64 72 82 69 42 47 65 88
8 4 4 6 11 15 21 25 36 41 43 75 73 66 62 58 96 90 91 97 97 97 97 98 98 97 98 97 97 96 84 55 47 40 32 30 60 61 65 70 69 67 68 60 92 95 96
14 6 5 5 9 12 18 20 24 38 42 52 67 70 60 59 87 94 92 96 94 87 90 98 96 97 96 88 81 57 47 50 38 42 31 33 40 59 74 64 86 82 78 97 100 94 92
21 8 7 5 7 11 13 18 17 18 27 45 57 42 39 83 87 91 94 81 71 63 87 94 97 96 96 88 76 65 53 46 44 34 36 53 70 72 65 75 87 75 97 85 92 94 100
20 20 9 6 6 8 11 15 27 42 43 38 45 30 29 36 65 59 56 52 53 56 96 95 100 98 88 65 52 36 38 39 33 30 39 59 63 55 59 69 79 85 79 80 92 94 99
9 34 12 21 6 7 9 15 31 43 38 44 47 41 32 32 42 56 63 54 59 92 97 93 85 75 67 48 31 29 29 37 70 78 83 76 71 77 83 76 80 89 94 91 85 99 92
12 23 33 16 22 7 9 11 19 33 30 42 39 41 40 34 39 56 50 53 83 99 100 72 74 47 32 26 30 58 78 84 85 82 93 96 77 73 81 93 94 92 98 98 97 98 92
15 9 40 29 27 24 8 11 17 18 20 42 43 42 44 52 54 53 46 57 100 85 68 80 78 64 59 58 72 86 87 92 95 86 83 98 78 82 87 94 99 98 99 98 98 96 98
42 13 20 41 30 30 30 14 12 15 24 43 43 46 44 42 43 40 21 80 88 78 85 84 74 67 74 79 80 83 82 88 94 91 94 98 92 85 90 94 98 99 100 99 98 97 96
60 13 11 33 34 28 32 36 30 27 36 40 39 38 54 38 33 25 46 88 92 84 82 84 86 93 95 98 92 85 89 84 89 98 99 98 100 88 90 84 98 98 100 99 99 97 96
75 34 13 20 40 24 20 31 28 30 34 38 38 37 48 36 29 48 81 100 87 80 83 90 94 96 96 96 97 100 98 95 95 93 96 97 99 89 73 79 82 82 89 99 98 98 91
83 58 13 15 30 36 13 16 30 23 26 34 34 31 35 36 33 43 62 74 79 87 90 92 96 93 92 91 93 97 97 98 96 95 94 91 90 81 61 61 72 81 86 79 98 84 82
86 68 23 13 25 39 23 10 17 26 18 21 30 29 33 36 44 44 54 62 78 81 82 84 90 82 78 82 84 83 82 83 81 81 78 81 77 83 83 79 80 79 77 64 93 81 84
88 73 49 15 16 33 38 12 9 16 19 17 20 21 27 37 40 45 46 61 66 70 75 77 78 68 68 75 70 65 66 71 72 71 69 68 62 62 66 72 73 70 65 63 78 68 65
87 83 59 18 12 26 41 27 9 9 12 15 18 18 20 32 38 37 44 49 55 59 67 68 70 66 63 64 60 52 49 50 52 55 57 57 57 50 46 61 63 63 60 59 61 57 53
76 90 73 42 16 14 34 42 20 9 9 11 15 16 19 20 23 33 36 37 39 44 54 57 55 59 56 53 52 51 53 51 48 46 48 56 54 51 40 39 43 41 54 54 50 49 50
76 86 87 60 19 15 20 39 42 28 10 9 11 16 17 17 19 23 26 32 33 34 44 47 47 46 48 45 44 45 45 49 51 47 47 49 52 53 46 42 59 27 39 46 47 46 46
85 85 83 84 46 16 19 29 42 45 41 19 9 10 16 17 17 16 20 23 24 31 35 39 39 37 39 37 35 30 35 43 47 45 51 52 56 52 46 43 23 21 25 32 40 36 39
82 88 79 90 69 28 23 25 37 46 45 45 39 17 11 12 14 15 16 19 26 24 26 30 32 33 38 37 37 40 41 40 45 43 38 45 47 52 52 50 34 17 24 29 33 28 30
73 99 91 85 90 56 19 28 29 38 45 43 42 49 41 12 13 12 11 16 17 25 30 28 30 32 35 40 47 48 52 52 50 39 35 35 41 45 51 52 24 22 27 35 45 24 22
71 98 98 84 92 80 51 17 36 31 24 29 38 38 44 47 14 12 13 12 14 15 22 30 31 29 35 36 42 47 52 45 38 29 27 30 33 34 56 70 45 23 27 34 30 29 27
76 98 99 94 87 93 73 46 17 37 45 21 24 31 34 40 45 18 14 15 15 13 17 20 27 30 28 26 28 29 31 32 36 34 27 28 21 24 23 12 14 14 16 22 24 28 33
Wind_Speed
50 45 46 43 41 41 38 31 28 27 20 23 20 14 14 13 19 17 16 12 12 11 11 26 26 39 37 26 13 7 14 17 15 17 18 17 17 16 16 16 18 21 21 21 22 21 24
55 53 47 41 39 38 37 30 25 21 16 17 17 14 19 17 17 23 19 16 14 11 8 24 28 27 35 42 25 15 12 10 11 12 12 13 14 13 13 14 17 19 19 19 20 19 26
57 54 45 38 38 40 40 35 28 20 18 16 15 16 17 17 16 16 19 18 17 11 9 26 37 21 19 14 14 23 21 17 12 10 12 12 12 12 13 13 16 18 20 19 19 17 19
58 58 45 36 40 41 41 33 28 20 18 18 20 25 23 11 17 14 16 17 17 12 9 28 34 31 21 17 17 20 25 19 10 10 9 9 10 10 11 12 13 15 17 13 11 11 14
56 55 45 37 41 43 42 32 28 23 20 19 21 23 19 9 6 10 14 14 13 10 14 23 31 30 16 17 22 17 15 10 10 9 7 7 8 9 10 9 10 9 11 12 13 13 19
53 52 45 39 40 41 41 35 30 23 22 22 22 25 24 18 10 8 11 10 7 10 16 15 26 23 14 21 21 20 16 14 9 7 6 5 5 7 6 5 4 7 12 15 15 13 22
49 48 46 42 39 39 39 39 30 25 23 19 18 20 24 14 11 8 8 9 10 13 20 9 19 10 21 30 21 14 16 14 10 7 3 3 3 2 2 4 5 11 13 18 18 17 25
45 43 44 43 41 39 40 39 30 27 26 23 17 18 18 18 13 9 12 13 11 19 19 15 14 17 25 26 16 14 16 11 7 4 3 1 0 3 3 4 7 12 17 19 21 10 25
43 40 40 40 40 37 38 36 32 27 26 24 23 20 18 17 20 19 20 28 30 30 34 27 24 25 23 18 15 15 13 8 7 4 3 1 2 2 4 7 11 14 18 17 19 22 25
42 39 38 36 37 35 37 33 30 26 26 26 25 23 19 17 19 24 26 31 34 25 19 18 16 18 17 19 16 13 12 8 6 4 0 1 4 4 6 6 9 17 8 12 16 18 12
41 38 38 34 32 33 34 33 31 27 24 22 24 26 25 24 29 31 28 20 10 6 6 8 16 15 15 6 13 11 10 6 5 3 1 1 2 4 6 5 11 12 14 20 23 26 27
40 38 36 34 30 29 32 33 30 33 35 29 22 25 26 19 19 21 17 12 9 8 7 7 9 11 12 12 9 12 9 5 2 1 3 2 6 8 7 10 12 15 18 19 13 10 5
38 38 34 35 31 27 27 26 24 28 35 29 26 21 18 18 13 11 10 8 10 11 7 9 13 13 10 12 11 8 6 5 3 2 4 4 4 8 9 9 8 6 10 5 4 1 5
38 36 35 32 33 29 25 23 23 26 31 29 20 15 13 11 9 8 9 9 18 8 11 16 14 14 15 13 10 7 6 4 2 4 4 5 2 3 4 5 5 7 7 3 3 2 6
41 33 34 31 30 29 27 23 21 23 27 24 20 15 12 11 9 7 14 28 8 14 17 15 13 10 7 6 6 4 3 2 1 1 2 2 4 5 6 7 6 3 5 7 6 9 5
41 34 30 33 29 28 27 26 26 25 25 20 14 13 16 15 14 14 30 27 19 20 13 7 5 6 5 6 2 0 1 1 2 5 4 5 7 2 1 4 4 7 7 3 3 3 3
41 36 28 28 30 28 26 25 24 23 23 17 12 18 18 15 15 21 34 25 17 11 11 12 13 7 5 3 3 1 3 2 5 4 6 7 4 2 4 2 8 5 3 2 3 3 2
38 36 27 25 28 27 25 22 20 18 19 15 9 16 17 12 10 27 24 19 17 15 14 11 9 11 13 11 11 5 5 4 5 4 4 4 4 5 1 5 10 10 8 4 3 1 2
36 33 28 22 23 26 25 21 18 14 13 11 7 13 13 10 14 20 20 18 15 12 11 10 7 6 6 7 6 8 7 7 6 5 5 6 5 8 1 2 6 9 13 9 4 2 1
34 32 27 20 19 21 22 22 17 13 9 7 5 6 11 7 13 13 13 13 12 11 11 11 9 8 8 8 6 5 4 6 6 6 6 5 7 5 1 4 10 14 10 5 6 2 4
33 31 27 21 15 16 19 19 17 13 10 8 4 4 5 6 7 5 6 9 8 8 7 6 5 5 5 4 5 5 4 5 6 6 6 6 6 6 5 7 11 10 10 3 5 15 6
32 30 26 21 14 13 14 14 15 14 9 6 6 5 2 2 2 4 5 5 5 6 5 6 4 4 4 4 5 6 5 4 4 3 4 5 5 10 8 6 8 7 5 4 8 3 17
30 31 26 21 15 9 10 11 13 13 11 6 4 3 1 3 3 3 4 4 2 0 3 1 1 1 3 3 4 5 5 5 4 4 4 4 6 7 6 9 11 9 5 3 6 10 11
27 29 28 22 18 10 8 8 9 10 11 10 5 1 3 5 7 7 6 7 6 5 4 4 4 3 4 7 9 10 10 10 9 7 7 7 7 6 7 7 1 2 6 7 7 8 10
25 26 26 24 18 13 8 8 6 7 8 8 8 5 2 5 8 10 11 10 10 10 9 9 8 8 9 9 10 7 7 5 5 8 10 9 8 6 5 7 13 11 10 9 10 10 10
26 23 25 21 18 15 10 10 8 7 8 8 6 5 3 4 6 9 12 14 14 13 13 13 12 12 11 10 9 3 3 6 4 5 7 10 11 9 6 4 5 3 5 9 9 14 12
30 23 24 25 17 14 13 10 12 11 9 9 9 8 6 5 3 7 9 12 15 15 15 13 15 14 13 12 10 5 4 5 4 5 6 9 9 14 14 9 10 12 8 9 7 3 2
30 26 18 23 22 16 14 12 13 17 16 13 12 12 11 9 7 6 8 10 13 15 14 13 11 10 10 8 5 4 5 5 8 10 11 6 5 6 5 8 8 6 9 14 8 8 8
26 25 19 20 23 19 16 16 14 16 17 18 17 15 15 14 12 11 10 12 12 14 15 15 13 11 7 6 6 7 10 13 13 7 10 7 5 7 8 7 13 15 15 13 16 19 19
Wind_Direction
357 353 354 354 351 347 343 338 336 326 312 291 335 303 304 281 251 250 252 246 242 255 252 214 219 222 227 223 182 161 206 223 222 225 226 225 222 223 228 237 245 253 259 264 269 270 271
1 4 3 2 359 358 357 352 344 338 338 338 324 309 289 272 260 252 247 253 233 236 271 198 200 212 221 222 222 212 185 192 191 193 205 217 224 226 235 245 251 262 268 270 275 276 275
7 8 10 9 6 1 5 2 353 350 342 342 341 319 300 282 267 246 235 231 225 233 241 191 193 192 201 186 183 205 207 207 202 214 225 230 234 235 239 253 258 266 272 278 280 277 275
9 9 15 11 7 4 7 3 5 13 7 358 347 342 337 278 240 230 218 218 223 223 222 187 193 208 205 223 204 207 218 192 203 215 216 225 230 238 247 257 268 275 283 280 278 281 287
11 13 18 15 9 7 11 12 19 23 15 14 14 12 15 5 163 195 213 206 208 205 208 188 194 199 180 184 201 188 183 167 200 210 220 231 240 250 256 262 276 281 285 290 288 288 290
13 14 15 16 13 13 18 20 20 29 24 32 24 20 27 55 89 143 185 181 174 209 201 163 191 198 191 187 180 176 209 194 205 211 215 228 252 267 281 280 272 285 291 284 287 283 290
15 14 14 14 15 15 21 21 24 36 35 35 32 41 34 48 61 70 112 162 143 162 114 147 150 149 155 161 158 167 181 187 192 194 204 231 268 295 270 268 274 282 292 291 298 315 293
16 15 17 16 16 18 21 24 33 38 37 42 46 43 48 58 37 62 90 142 140 126 114 108 127 137 156 161 158 174 174 166 171 184 197 239 289 216 243 282 283 295 303 303 307 301 307
17 17 15 20 21 21 22 30 32 31 31 38 45 44 47 59 71 92 107 111 121 117 95 98 99 113 135 153 151 142 128 139 158 176 209 113 156 180 261 277 293 291 293 314 301 313 314
19 17 17 21 24 19 19 27 35 37 36 39 43 47 51 63 94 95 117 120 110 95 80 54 75 97 109 116 121 129 142 141 152 172 169 89 227 234 265 296 296 299 313 305 297 309 298
20 18 20 19 23 20 17 17 28 33 38 41 51 60 68 77 91 98 110 100 87 73 70 39 73 103 107 105 127 151 146 127 142 144 95 289 250 284 300 306 292 292 303 309 302 292 293
18 20 17 21 21 21 16 17 29 48 45 42 46 73 82 73 88 80 82 67 72 79 48 69 97 109 113 117 120 137 140 118 93 19 325 290 263 270 289 284 291 303 309 307 293 283 252
16 19 19 19 20 23 21 25 27 34 32 36 41 55 83 92 95 72 62 82 77 62 110 93 101 101 104 103 105 110 103 95 67 43 9 321 268 278 286 295 295 320 319 312 353 271 242
13 17 21 15 19 18 23 21 21 15 18 24 45 54 69 83 88 25 69 93 69 73 97 111 101 96 93 97 93 104 109 100 82 48 339 349 295 309 290 293 290 289 289 277 283 291 297
8 15 18 19 17 18 16 21 17 18 16 22 41 41 25 30 38 80 102 87 91 103 112 107 95 94 92 103 121 104 95 75 55 2 300 309 282 325 307 289 279 301 243 287 271 285 270
3 11 14 18 16 15 17 17 15 17 20 23 46 39 52 46 59 101 104 92 102 110 103 75 70 68 93 104 91 48 282 309 299 252 272 301 309 358 338 318 315 273 313 306 258 304 298
0 4 11 13 19 15 17 18 17 20 30 36 65 72 52 52 89 109 89 90 86 75 69 66 66 71 74 48 355 294 330 317 309 290 286 271 282 298 306 349 11 29 320 272 277 288 302
0 359 7 11 12 22 18 18 22 27 36 53 71 66 49 66 107 86 86 88 88 83 73 63 61 59 63 62 49 53 45 63 72 64 34 339 301 295 344 319 328 325 352 347 214 187 349
356 358 360 9 13 19 21 21 19 27 37 52 60 59 51 74 90 94 94 95 90 68 64 57 46 61 42 27 48 42 47 40 36 27 13 359 332 316 265 352 339 335 318 291 248 207 198
352 354 359 1 11 11 26 22 24 18 25 33 46 60 57 65 92 96 98 95 90 78 70 65 55 59 67 62 54 48 35 38 40 35 17 0 3 16 56 332 326 346 353 213 199 285 140
350 351 353 357 2 13 16 22 22 23 23 39 26 37 38 104 100 97 98 105 89 84 77 74 66 45 43 52 34 44 40 53 38 23 11 356 338 332 337 350 348 358 19 39 205 136 161
343 349 348 354 350 1 9 19 23 20 15 31 51 52 123 122 78 112 132 131 101 92 100 83 76 63 50 25 29 16 14 13 21 5 349 335 316 320 320 323 327 335 322 188 165 201 153
329 339 345 343 349 341 348 6 19 23 22 19 43 57 229 265 260 208 209 194 187 232 152 135 84 22 346 331 340 337 339 342 325 318 310 307 308 310 291 304 303 282 234 183 175 170 183
323 326 338 337 339 332 320 336 4 15 25 32 35 356 272 271 268 266 266 245 238 233 246 270 291 298 313 316 321 315 302 291 288 291 285 284 298 290 276 302 334 271 228 217 223 225 211
310 316 323 335 326 328 310 300 315 350 358 31 49 28 294 268 261 266 269 261 262 258 259 245 251 275 290 301 315 331 319 318 288 277 275 283 292 291 279 284 284 277 236 232 246 254 240
298 303 313 326 322 319 312 288 283 290 319 335 1 38 17 295 267 254 261 262 257 263 271 270 276 280 288 301 308 283 274 289 252 280 266 273 274 265 288 285 244 253 222 212 241 281 245
290 282 297 308 314 307 306 294 275 274 273 290 310 320 329 315 263 268 252 251 257 255 263 279 282 284 288 292 287 272 253 268 268 262 244 290 271 259 256 256 275 261 255 224 217 228 264
274 265 283 294 304 302 296 293 279 270 269 274 281 293 300 308 296 271 259 246 247 250 251 260 277 282 283 279 269 280 265 264 266 269 281 254 239 228 215 228 267 236 243 226 247 243 271
252 253 262 281 294 297 294 289 282 278 274 267 270 276 284 290 294 289 273 253 238 235 240 246 240 246 254 268 273 275 273 281 278 281 265 265 250 253 247 264 277 280 281 281 269 257 258